Weather in Zavidnoye

Russia / Ryazan Oblast     53°57′44″N   42°03′40″E
temp.,
°C
wind,
m/s
gust,
m/s
humid.,
%
clouds,
%
prec.,
mm/h
press.,
hPa
HPBL,
m
13 august, sat
sat1300:00+17ne226239 0.0 102318
03:00+16ene226773 0.0 102312
06:00+16ne22695 0.0 102344
09:00+24ene2246100 0.0 1022426
12:00+27ne223599 0.0 10221153
15:00+28nne2231100 0.0 10201428
18:00+26nne243977 0.0 1020123
21:00+20ne2246100 0.0 102020
14 august, sun
sun1400:00+18e2358100 0.0 102044
03:00+17e2362100 0.0 102050
06:00+17e2466100 0.0 102091
09:00+23e3551100 0.0 1020383
12:00+27e4438100 0.0 10191494
15:00+28ene3437100 0.0 10191873
18:00+25ne4750100 0.0 1018299
21:00+22ene4116097 0.0 1019260
15 august, mon
mon1500:00+19ese3771100 0.0 1019143
03:00+18e377499 0.0 1020123
06:00+18e3771100 0.0 1021177
09:00+24ese4543100 0.0 1021538
12:00+28e453286 0.0 10211643
15:00+29e453098 0.0 10202212
18:00+27ene473813 0.0 1020622
21:00+21e412550 0.0 1021240
16 august, tue
tue1600:00+18ese311653 0.0 1022224
03:00+17e38705 0.0 1023138
06:00+17e38735 0.0 1023181
09:00+24e58485 0.0 1023838
12:00+28e57335 0.0 10222044
15:00+30e56305 0.0 10212286
18:00+27e47365 0.0 1021969
21:00+20e412556 0.0 1022272
17 august, wed
wed1700:00+19e4125445 0.0 1022286
03:00+16e39645 0.0 1022165
06:00+16e396439 0.0 1022184
09:00+24e464095 0.0 1022480
12:00+29ese4627100 0.0 10201905
15:00+28e3529100 0.0 10201380
18:00+26ene483699 0.0 1019370
21:00+21e4124698 0.0 1020265